Helicity
44 42 48 55 54 59 78 87 125 144 151 137 120 119 106 93 152 -16 18 6 -0 13 27 105 139 124 95 94 58 61 29 -9 10 -1 46 27 44 -4 1 36 -12 -0 4 141 91
46 50 52 53 56 59 63 82 105 129 147 148 128 121 119 98 77 29 22 27 41 4 38 77 83 58 92 31 -0 27 15 -1 1 -2 9 25 2 25 12 32 54 11 91 105 99
49 48 56 59 59 68 73 84 88 113 134 144 142 123 119 129 59 2 73 47 36 -11 48 55 41 23 75 12 17 -6 46 9 11 25 -5 33 9 -2 -1 11 61 64 130 130 108
55 54 55 67 79 80 80 85 94 93 117 132 141 129 127 62 37 81 58 37 -34 -9 19 51 44 1 -31 -1 20 -27 3 -9 19 17 -30 3 25 8 -10 37 12 102 101 109 81
61 65 62 68 79 83 85 90 94 105 108 116 131 128 79 -2 38 29 24 19 -0 -8 4 2 -24 -4 -24 15 -11 -10 27 -6 10 -2 -0 3 3 13 20 30 29 123 108 88 72
59 71 70 64 70 79 81 78 87 95 107 116 112 111 36 -3 78 20 35 12 -14 -14 -5 12 -19 5 19 9 -47 42 -1 -10 18 7 7 -12 -4 19 46 42 90 110 105 95 71
66 81 84 76 73 81 92 101 109 103 79 77 60 44 45 8 47 7 19 1 6 -21 -20 -7 34 4 -13 9 19 6 -19 18 38 28 10 -10 -6 10 76 71 79 82 111 101 73
68 86 98 94 84 78 87 114 105 81 46 17 4 16 70 74 46 16 -3 -11 -18 -33 10 34 32 42 29 24 -14 -6 24 -8 121 19 66 11 59 27 41 48 88 87 116 116 104
63 82 96 103 93 95 112 117 78 12 5 -1 10 19 52 42 21 8 -10 -20 -18 -27 -7 81 -27 -8 17 -0 -5 32 -13 35 78 -10 -2 25 16 28 45 31 80 95 135 113 111
61 73 84 90 107 115 147 83 17 5 1 7 24 46 31 22 53 59 13 -16 -10 -14 -37 -38 -22 -26 -12 -20 -21 7 11 72 7 32 21 3 11 4 12 45 20 133 114 120 103
55 64 69 105 128 129 98 18 21 8 7 16 74 101 92 57 58 25 35 24 -4 -12 -8 18 -23 -21 -9 2 43 22 -4 33 20 54 22 -13 10 12 2 43 49 4 143 167 75
48 54 73 111 141 120 40 37 41 53 51 22 14 23 63 47 40 33 42 43 33 19 -15 -22 23 -7 -23 -40 -6 32 18 -0 -2 43 8 10 1 16 5 2 17 38 58 130 99
53 54 74 123 130 40 19 51 39 51 25 27 22 17 23 15 22 32 28 22 38 17 2 -19 7 33 -34 -15 -27 35 -18 -5 -7 41 16 30 38 36 24 42 29 12 -5 93 113
51 54 65 153 39 40 25 31 34 25 50 69 29 45 58 21 17 -28 29 1 -13 9 -2 -6 -10 33 9 -27 19 -29 20 28 59 11 -29 10 -11 61 15 25 46 43 40 39 125
50 48 53 49 54 32 57 27 32 12 84 64 88 99 78 18 108 45 16 -12 -12 18 -14 3 12 22 6 13 -15 -7 10 33 24 2 16 34 15 63 32 13 41 23 30 34 44
56 50 76 5 3 14 26 35 20 67 120 52 58 30 32 13 28 67 39 -24 -8 -25 -2 -25 15 29 17 -2 -11 7 15 34 35 -5 -9 3 15 8 166 18 11 36 19 22 28
69 61 8 23 56 22 21 24 73 92 70 71 22 35 5 37 14 63 42 60 38 40 34 44 -6 51 30 2 10 14 15 10 29 13 -3 9 18 77 26 47 31 21 38 20 28
94 33 16 -20 13 11 17 38 120 107 62 109 46 57 33 23 27 38 41 33 13 -5 -12 49 58 35 31 5 -4 34 4 16 7 -17 -4 55 42 28 22 59 14 22 17 41 31
103 -4 -16 9 -8 -0 31 38 36 93 151 91 58 26 27 37 50 40 23 28 13 10 -16 -12 46 21 26 19 21 16 43 10 27 18 18 117 7 17 41 6 40 -14 17 36 14
-5 -18 19 10 -4 2 38 58 99 121 64 49 63 56 23 40 50 23 23 14 -3 10 27 4 38 30 53 21 18 23 21 20 27 33 24 25 -4 24 38 12 35 -5 -5 21 25
-23 -18 31 6 -8 -4 23 40 83 33 49 59 56 79 29 63 21 -3 17 34 36 4 41 7 28 22 32 52 26 55 32 44 20 8 16 22 10 59 63 32 11 19 3 47 51
-11 5 47 -1 -9 -12 8 57 86 39 31 39 71 93 78 42 19 8 8 28 28 6 47 11 20 39 27 23 24 27 22 31 29 20 22 30 31 95 54 11 1 41 26 88 56
-10 30 32 -8 3 9 37 13 28 29 26 44 37 31 17 14 27 11 24 62 73 15 14 20 35 38 25 9 5 25 30 22 18 14 7 46 34 37 61 22 38 14 10 68 47
-10 7 42 14 -2 17 36 10 12 36 19 32 43 13 31 15 9 28 25 24 36 13 70 44 27 25 30 18 36 20 36 45 22 27 24 29 18 68 43 13 26 28 9 50 52
9 25 34 11 17 2 9 33 22 17 20 12 24 18 8 3 -9 18 16 29 54 71 18 -12 1 7 24 45 36 35 42 17 37 29 22 12 31 35 34 33 87 65 59 67 43
6 17 25 11 6 -1 5 2 -4 1 6 -3 20 16 26 -13 -16 79 155 106 156 315 8 -8 10 22 19 19 36 44 53 9 12 16 34 40 39 43 67 82 51 58 48 44 62
34 11 4 5 6 20 4 2 7 30 30 11 31 31 38 26 78 78 49 37 75 5 14 31 23 27 25 17 30 42 38 46 29 11 23 35 41 40 53 48 90 59 24 65 54
Wind_Speed
44 44 44 44 43 42 42 41 40 40 40 41 42 43 43 44 44 22 36 22 11 47 44 39 37 34 34 32 34 29 32 37 37 35 34 34 39 38 37 40 38 38 37 35 42
45 45 46 46 46 46 45 44 43 43 43 43 43 44 45 44 45 45 17 26 34 49 41 38 30 30 29 25 25 31 34 34 34 34 35 34 35 36 33 38 40 40 38 40 43
46 46 47 47 48 48 48 47 46 46 46 45 45 44 44 44 44 6 20 28 41 43 44 42 40 31 33 21 20 20 34 30 30 35 33 35 32 34 34 38 37 33 36 38 39
47 47 48 48 49 49 49 49 49 48 48 48 47 46 44 36 18 21 20 27 25 39 36 35 30 20 24 22 19 19 23 26 29 28 29 25 33 30 36 38 37 34 33 34 32
49 49 49 49 50 50 50 51 51 50 51 50 49 46 39 15 23 20 16 18 14 27 32 24 15 15 21 26 25 12 20 22 24 24 23 32 28 33 30 34 32 32 32 31 30
50 50 50 50 51 52 52 53 53 53 52 51 49 44 29 14 24 19 17 10 10 26 31 34 18 28 40 27 22 30 26 21 20 19 19 20 19 24 30 30 29 28 28 28 27
51 51 51 51 52 53 54 55 55 55 53 50 44 35 35 1 32 17 21 8 5 28 31 26 50 23 20 19 28 29 16 12 17 20 25 16 17 18 25 26 26 26 26 25 25
52 52 52 52 53 54 56 56 56 54 48 41 32 29 28 26 33 23 14 9 5 20 46 24 47 51 48 32 23 10 12 7 28 17 21 24 15 23 22 26 24 24 23 24 29
53 54 54 54 55 57 57 56 52 41 34 24 26 24 29 26 21 11 4 1 10 10 4 42 41 38 23 10 6 7 3 22 13 7 27 24 44 23 24 22 21 20 19 23 24
54 55 55 55 57 58 56 51 37 29 26 25 38 32 31 16 8 19 13 8 2 5 2 6 8 11 6 13 5 16 5 8 18 22 15 11 20 42 27 17 17 16 20 21 22
54 55 55 57 58 56 50 27 28 26 13 21 28 27 24 22 25 17 12 9 7 5 7 14 13 17 15 12 63 29 42 33 19 28 32 16 39 46 43 13 14 16 18 17 21
54 55 56 57 58 53 40 32 32 36 42 11 27 31 30 30 17 11 8 14 13 14 11 10 16 12 14 14 12 40 40 28 26 29 20 38 25 48 42 20 15 12 16 14 17
55 55 56 57 54 40 34 33 34 41 35 16 21 18 15 8 17 5 13 24 21 18 17 20 16 16 22 20 13 34 26 28 36 31 48 25 17 18 24 13 14 9 9 11 15
55 55 55 56 39 35 28 28 40 37 37 17 23 20 16 17 19 6 14 22 12 22 23 28 47 36 30 21 31 20 25 61 42 41 27 19 28 53 14 26 16 13 13 13 18
55 55 54 46 45 30 30 36 37 28 38 18 17 20 16 4 22 7 2 16 21 13 18 24 36 37 39 40 24 51 57 35 38 49 59 35 18 16 15 17 33 29 18 21 25
56 55 53 33 30 38 34 37 29 30 40 24 22 18 12 10 23 9 6 7 14 12 17 27 47 50 42 48 43 65 58 43 48 39 24 2 35 28 12 28 30 26 22 25 28
57 55 43 39 30 30 33 26 30 39 27 29 24 18 15 15 12 10 8 13 11 14 18 20 37 47 57 57 64 57 52 47 32 17 13 5 19 22 37 21 30 26 17 19 24
54 47 25 32 33 31 29 29 40 35 31 30 33 31 32 20 16 14 12 15 18 14 23 21 28 33 44 55 57 45 70 52 36 31 8 2 17 37 46 25 25 21 14 21 24
46 28 28 25 25 29 30 35 40 33 34 41 40 39 26 28 34 17 20 21 21 21 25 40 33 40 48 54 63 73 55 76 81 76 65 2 28 27 30 33 23 33 26 15 19
34 28 27 25 21 28 36 49 40 42 43 43 45 33 36 20 22 25 22 29 36 33 38 57 51 44 31 59 65 77 65 55 74 87 80 54 51 39 12 15 19 26 27 14 11
28 28 25 21 24 29 41 39 39 39 40 40 40 40 38 37 35 30 33 34 40 45 35 52 54 48 39 50 67 59 81 67 72 70 76 54 57 8 23 32 31 24 26 18 20
38 33 20 21 29 32 47 38 39 45 32 39 41 47 42 39 37 37 38 37 29 41 31 43 51 56 47 52 67 86 70 68 64 71 63 71 56 32 16 26 25 33 25 22 25
31 31 22 25 35 33 32 42 37 42 36 37 37 35 36 42 40 43 35 33 36 45 44 36 47 70 62 54 55 66 84 72 88 75 80 59 72 7 12 30 37 36 37 23 21
35 24 24 19 53 45 46 45 44 28 45 44 43 40 42 40 42 39 33 30 29 43 44 50 57 55 65 59 55 67 79 81 82 83 77 63 74 15 28 34 36 40 44 27 18
22 32 38 29 24 30 40 44 46 42 27 37 35 44 47 42 43 32 44 52 30 34 41 35 48 53 62 81 76 73 68 82 91 96 94 82 62 63 43 41 29 37 46 41 37
39 38 37 36 46 35 34 42 42 46 36 40 26 48 18 38 46 50 57 47 47 49 35 32 51 57 68 76 76 81 69 72 85 86 93 90 77 50 23 30 39 41 44 41 39
41 6 27 42 35 14 33 41 35 43 47 46 54 45 36 41 58 63 51 55 75 31 34 32 45 47 67 66 73 92 83 76 73 83 76 86 73 72 61 39 40 41 39 34 36
Wind_Direction
310 308 305 302 299 299 293 289 284 279 273 273 273 271 266 262 253 158 165 327 2 187 184 167 160 166 172 176 162 178 249 87 46 56 55 82 47 56 55 61 41 30 17 88 109
309 308 306 303 302 300 298 293 288 283 279 274 272 272 269 266 240 201 315 297 260 185 158 154 130 125 141 106 95 155 45 53 14 15 40 36 22 48 77 46 42 37 38 92 112
309 307 304 302 301 299 298 297 294 290 284 278 272 267 267 267 263 45 307 285 246 155 174 207 219 198 193 61 66 48 319 16 25 345 344 23 34 26 38 39 35 50 70 96 112
305 305 303 299 297 295 293 289 288 290 287 282 277 270 260 265 347 325 314 288 133 153 163 168 161 99 6 19 33 33 4 1 0 16 12 74 32 46 354 17 25 58 77 95 106
305 303 301 300 297 295 292 289 285 280 281 283 280 279 284 335 316 360 329 317 109 144 157 140 100 80 4 346 344 51 24 16 15 23 42 342 24 9 52 23 41 60 78 93 102
304 302 300 301 300 297 293 289 284 280 280 278 278 284 300 316 319 347 323 356 93 146 161 168 132 314 304 334 344 329 338 3 31 47 50 55 64 63 36 43 49 72 83 94 99
302 300 298 298 297 295 292 286 281 278 279 277 283 297 292 110 298 324 309 354 19 149 162 159 249 193 3 0 324 331 7 76 103 58 25 105 99 83 62 57 72 86 92 95 103
300 298 297 295 294 293 289 284 278 277 285 293 301 303 299 303 289 295 315 330 71 137 198 311 231 217 273 320 325 33 127 133 327 41 37 176 260 72 78 78 85 104 98 109 124
301 298 296 294 294 292 287 282 284 300 308 320 317 310 303 306 289 287 283 27 128 123 68 274 184 184 166 347 122 75 116 342 7 27 340 6 300 291 12 63 92 99 104 126 128
301 300 298 297 295 293 286 286 315 323 322 317 294 303 299 306 299 290 276 277 250 137 137 148 303 179 177 174 333 337 4 58 353 350 26 178 177 218 188 60 65 99 123 132 140
302 300 300 297 293 292 297 335 328 326 314 303 310 305 321 308 296 285 266 245 265 245 209 175 210 208 198 187 253 320 298 319 357 327 330 12 222 231 218 112 50 142 128 134 150
303 301 299 295 290 285 302 314 320 311 299 297 297 299 302 303 305 291 235 200 212 228 242 231 228 232 226 249 279 295 292 309 319 327 337 238 224 239 215 171 16 93 134 131 137
300 299 297 293 286 297 308 313 305 300 302 313 303 298 310 314 305 170 172 180 195 227 228 253 270 284 276 208 247 289 290 304 303 322 257 193 183 169 172 34 32 113 101 123 137
300 299 297 292 301 312 316 314 294 297 299 299 301 305 299 308 297 159 160 175 216 211 220 264 274 292 283 263 275 272 285 259 298 300 328 356 339 269 69 342 170 61 101 101 121
300 297 296 295 292 312 311 296 293 303 295 306 312 324 314 261 332 190 191 172 195 226 249 224 272 273 277 275 266 262 260 287 295 285 264 205 347 8 24 22 348 352 65 98 117
298 295 292 308 305 293 300 292 296 293 288 305 310 304 297 247 303 355 198 222 278 250 234 264 272 270 274 272 267 251 264 282 283 289 304 339 277 332 18 344 340 18 58 94 109
293 288 295 294 310 308 297 297 289 280 303 296 294 303 293 304 259 287 233 212 230 250 249 266 261 271 267 265 256 260 266 273 284 276 287 195 307 309 274 349 332 345 37 85 108
288 285 327 298 301 297 295 287 280 294 296 296 295 294 290 291 286 265 270 239 217 258 288 272 266 245 267 260 259 261 251 262 276 286 259 45 326 288 275 339 340 359 13 106 119
280 330 319 325 305 290 288 279 286 292 296 287 290 289 292 292 295 266 261 262 256 235 270 293 281 280 256 258 255 249 258 249 249 249 262 163 310 292 302 296 337 295 314 110 116
307 321 327 324 316 291 284 274 293 285 285 285 283 293 293 295 288 285 270 285 275 270 270 273 288 277 271 258 255 250 256 259 254 243 249 279 274 295 291 300 323 311 313 9 13
328 318 343 347 311 294 280 294 291 293 292 291 291 294 291 297 296 288 290 282 285 271 268 269 276 276 272 257 252 253 248 258 257 253 254 275 273 287 280 282 289 317 324 348 339
297 310 354 338 306 299 286 300 302 293 304 293 294 289 293 301 294 286 289 286 294 274 265 270 273 270 274 269 256 248 252 252 254 250 257 247 268 283 306 287 288 280 325 2 328
327 331 342 320 303 304 311 304 305 298 300 298 292 292 296 290 294 285 288 292 297 281 275 271 268 265 271 268 259 250 246 251 245 250 247 263 250 325 5 286 281 289 293 332 332
320 346 354 339 275 294 300 303 302 318 294 293 290 289 289 287 284 290 286 291 293 284 280 272 267 268 267 268 263 255 251 248 247 246 248 256 233 311 297 288 282 285 286 308 329
82 335 308 323 344 321 306 302 301 303 317 303 297 283 279 283 281 279 280 279 293 285 276 266 274 273 271 258 260 259 255 248 246 242 243 240 263 262 285 290 292 291 286 287 290
306 317 324 210 272 327 321 306 306 301 304 299 305 283 288 287 277 287 282 287 287 292 272 271 276 278 271 261 261 258 256 250 246 246 245 243 248 265 315 303 292 287 286 285 289
324 14 284 268 223 22 326 313 320 309 293 291 281 288 296 289 282 278 291 282 240 292 306 308 288 281 273 267 263 251 249 250 250 247 250 247 257 260 270 294 285 285 288 295 296